Location: Hilton Head Island
(32.2163°N, 80.7526°W)
Time: 13:03:40
(UTC-04:00)

Explorer 7 - Pass Details

Date: 22 February 2026
Orbit: 430 x 541 km, 50.2° (Epoch: 12 March)

Event Time Altitude Azimuth Distance (km) Brightness Sun altitude
Rises 21:02:20 0° 300° (WNW) 2,566 11.1 -35.9°
Enters shadow 21:04:31 - 290° (WNW) 1,759 10.2 -36.4°
Reaches altitude 10° 21:04:41 10° 289° (WNW) 1,703 - -36.4°
Maximum altitude 21:08:01 28° 229° (SW) 984 - -37.1°
Drops below altitude 10° 21:11:27 10° 169° (S) 1,749 - -37.8°
Sets 21:13:54 0° 158° (SSE) 2,651 - -38.3°
